Volver al catálogo

STARLINK-11209

ActivoComunicacionesVLEO
NORAD 61200·PAYLOAD·🇺🇸 United States

Lanzado Sep 20, 2024 desde Vandenberg Space Force Base

Loading…

Próximos Pases (próximas 24 horas)

TLE

ActualizadoSource: CelesTrak SupGP

Época: Sep 14, 2026, 21:30 UTC

1 61200C 24171A   26257.89631944 -.00036260  00000+0 -29862-3 0  2575
2 61200  53.1566 323.7367 0001224  75.1167 269.8215 15.69732499    13

Sigue STARLINK-11209 en tiempo real con AllMySat

Download on the App Store